< < Back
Terminal Aerodrome Forecast


Current Version              Previous Versions:   1  2  3  4  5  6  7  8  9  

Terminal Aerodrome Forecast

420
FTUS42 KMLB 040234 AAB
TAFDAB
TAF AMD
KDAB 040234Z 0403/0424 20007KT P6SM FEW023 SCT100 OVC250
     FM041400 23008KT P6SM SCT030 SCT100 OVC250
     FM041800 22008KT P6SM VCTS SCT035CB BKN080
      TEMPO 0420/0423 4SM TSRA BKN030CB BKN060=



Latest METAR

493
SAUS80 KWBC 040700 RRA
MTRDAB
METAR KDAB 040653Z 20007KT 9SM FEW110 OVC200 24/22 A2997 RMK AO2 SLP147
T02440222


USA.gov is the U.S. government's official web portal to all federal, state and local government web resources and services.